Погода в Виноградове

Украина / Закарпатская область     48°08′22″N   23°02′18″E
темп.,
°C
ветер,
м/с
пор.,
м/с
влажн.,
%
обл.,
%
осадки,
мм/ч
давл.,
гПа
погр.,
м
18 октября, пн
пн1800:00+6в117427 0.0 102310
03:00+5всв118313 0.0 102410
06:00+4в118391 0.0 102411
09:00+6вюв117849 0.0 102522
12:00+11юз1157100 0.0 1025501
15:00+12з2252100 0.0 10241032
18:00+10зсз1260100 0.0 102517
21:00+9з116349 0.0 102612
19 октября, вт
вт1900:00+7в117662 0.0 102810
03:00+8юз1172100 0.0 102812
06:00+8юв1175100 0.0 102812
09:00+8ююв1173100 0.0 103055
12:00+10ююв1163100 0.0 1030444
15:00+13юв225696 0.0 1029798
18:00+11в236480 0.0 102847
21:00+8в117732 0.0 102911
20 октября, ср
ср2000:00+6в228686 0.0 102913
03:00+6в228798 0.0 102815
06:00+6в228882 0.0 102812
09:00+7вюв228097 0.0 102762
12:00+12ююв235992 0.0 1027560
15:00+13ююз2357100 0.0 1025419
18:00+13вюв1160100 0.0 102324
21:00+9в227497 0.0 102211
21 октября, чт
чт2100:00+8в2275100 0.0 102114
03:00+8в2276100 0.0 102016
06:00+7в2275100 0.0 101814
09:00+9юв226999 0.0 101743
12:00+15ю4847100 0.0 1016608
15:00+19юз8113838 0.0 10141853
18:00+15зюз2255100 0.0 101426
21:00+14юв3461100 0.0 101470
22 октября, пт
пт2200:00+13юв226957 0.0 101528
03:00+11юв227572 0.0 101515
06:00+12юв2368100 0.0 101468
09:00+12в2273100 0.2 101335
12:00+13вюв1271100 0.0 101258
15:00+15юв365890 0.0 1010439
18:00+16юв2255100 0.0 100839
21:00+14юв3561100 0.0 1009114